Location: Olmeneta
(45.2333°N, 10.0167°E)
Time: 15:16:03
(UTC+00:00)

Cosmos 2074 Rocket - Pass Details

Date: 03 March 2021
Orbit: 966 x 987 km, 82.9° (Epoch: 11 April)

Event Time Altitude Azimuth Distance (km) Brightness Sun altitude
Rises 17:32:57 0° 179° (S) 3,676 7.1 -4.8°
Reaches altitude 10° 17:35:28 10° 177° (S) 2,729 6.4 -5.3°
Maximum altitude 17:41:41 72° 95° (E) 1,028 4.0 -6.4°
Drops below altitude 10° 17:47:55 10° 12° (NNE) 2,734 6.2 -7.5°
Sets 17:50:26 0° 11° (N) 3,683 6.9 -7.9°
